Regional Weather Roundup
Issued by NWS

Home | Current Version | Previous Version | Text Only | Print | Product List | Glossary Off
Versions: 1 2 3 4 5 6 7 8 9 10 11 12 13 14 15 16 17 18 19 20 21 22 23 24 25 26 27 28 29 30 31 32 33 34 35 36 37 38 39 40 41 42 43 44 45 46 47 48 49 50

000
ASUS45 KTFX 250219
RWRMT
MONTANA HOURLY WEATHER ROUNDUP
NATIONAL WEATHER SERVICE GREAT FALLS MT
819 PM MDT THU JUL 24 2014

NOTE: "FAIR" INDICATES FEW OR NO CLOUDS BELOW 12000 FEET WITH NO
SIGNIFICANT WEATHER AND/OR OBSTRUCTIONS TO VISIBILITY.

* THESE STATIONS ARE NOT UNDER NWS QUALITY CONTROL. THEY DO NOT
   REPORT WEATHER SUCH AS PRECIPITATION OR FOG.

MTZ001>007-043-250300-
WEST OF THE DIVIDE
CITY           SKY/WX    TMP DP  RH WIND       PRES   REMARKS
KALISPELL      CLOUDY    59  39  48 SW15      30.09S
MISSOULA       PTCLDY    66  36  33 NW14G22   30.10S
BUTTE          CLEAR     66  27  23 NW14      30.08R
MULLAN PASS    CLOUDY    46  37  71 VRB6G20   30.18S
* ESSEX        N/A       54  40  59 NE3G9      N/A
* LINCOLN      N/A       63  36  37 W7G18      N/A
* LOOKOUT PASS N/A       53  39  59 SE6G11     N/A
* POLSON       N/A       58  41  53 S1G6       N/A
* RONAN APT    PTCLDY    63  39  41 W7         N/A
* SEELEY LAKE  N/A       63  34  34 W7G17      N/A
* THOMP F APT  CLEAR     73  19  13 S14G25     N/A
$$

MTZ008-052>055-250300-
SOUTHWEST MONTANA
CITY           SKY/WX    TMP DP  RH WIND       PRES   REMARKS
BOZEMAN        CLEAR     72  36  27 NW7       29.98S
DILLON         CLEAR     68  37  32 W9        30.02S
W YELLOWSTONE  CLEAR     66  28  24 S10G18    30.14R
* THREE FORKS  CLEAR     77  37  24 N/A        N/A
* BOULDER HILL N/A       65  26  23 S14G20     N/A
* MONIDA PASS  N/A       73  11   9 W11        N/A
* RAYNOLDS PAS N/A       70  51  51 S15G24     N/A
* WHITEHALL    N/A       78  25  14 NW13G25    N/A
* WISE RIVER   N/A       67  27  22 NW14G20    N/A
$$

MTZ009>010-012-014-046-048-049-054-250300-
EAST SLOPES AND CENTRAL MONTANA
CITY           SKY/WX    TMP DP  RH WIND       PRES   REMARKS
CUT BANK       CLEAR     59  36  42 W39G52    29.94R
GREAT FALLS    CLEAR     66  30  26 W23G31    29.92R
HELENA         CLEAR     72  28  19 W6        29.99R
MALMSTROM AFB  CLEAR     68  30  24 W22G28    29.95R
* CONRAD       CLEAR     64  37  37 W11G16     N/A
* DEARBORN     N/A       69  31  24 S22G27     N/A
* EAST GLACIER N/A       53  34  49 W9G38      N/A
* MONARCH      N/A       64  18  17 NW17G30    N/A
* SAINT MARY   N/A       52  37  57 SW15G34    N/A
* SWEET GRASS  N/A       61  33  35 W20G28     N/A
* WHITE SULPH  N/A       65  30  27 NW14G24    N/A
$$

MTZ011-013-016-021-035-040-045-047-050-051-250300-
NORTH CENTRAL MONTANA
CITY           SKY/WX    TMP DP  RH WIND       PRES   REMARKS
HAVRE          CLEAR     70  34  27 W25G38    29.84S
LEWISTOWN      CLEAR     72  28  19 NW12G18   29.92R
* FORT BENTON  CLEAR     72  30  21 SW24G30   29.88S
* CHESTER      N/A       66  31  27 W25G37     N/A
* DENTON       N/A       71  28  20 W20G30     N/A
* JUDITH GAP   N/A       73  36  26 NW11G16    N/A
* LOMA         N/A       72  31  22 W24G39     N/A
$$

MTZ017>020-022>027-061-062-250300-
NORTHEAST MONTANA
CITY           SKY/WX    TMP DP  RH WIND       PRES   REMARKS
GLASGOW        CLEAR     72  37  28 NW20G29   29.77R
GLENDIVE       MOCLDY    66  55  68 N29G39    29.79R
JORDAN         CLEAR     75  43  32 NW20G29   29.78R
SIDNEY         CLOUDY    68  59  73 NW30G40   29.76R
WOLF POINT     MOCLDY    72  54  53 NW22      29.76R
* BEAVER HILL  N/A       74  66  76 SW44       N/A
* CIRCLE       N/A       71  50  48 N8G16      N/A
* LINDSAY DVD  N/A       66  55  68 NW30G38    N/A
* NAVAJO       N/A       59  54  84 NW28G36    N/A
$$

MTZ028>042-056>058-250300-
SOUTHCENTRAL AND SOUTHEAST MONTANA
CITY           SKY/WX    TMP DP  RH WIND       PRES   REMARKS
BAKER          PTCLDY    75  63  66 NW30G41   29.75R
BILLINGS       CLEAR     81  43  26 N17G28    29.84R
LIVINGSTON     CLEAR     75  34  22 W21G28    29.94R
MILES CITY     CLEAR     75  50  42 N22G29    29.77R
* LAUREL APT   CLEAR     82  45  27 NW11G17    N/A
* ROUNDUP APT  CLEAR     79  39  24 NW13G21    N/A
* HYSHAM       N/A       77  42  29 NW8G20     N/A
* LAME DEER    N/A       76  50  40 N22G35     N/A
* REED POINT   N/A       80  39  23 W16G24     N/A
* ROSCOE HILL  N/A       77  36  23 NW3G8      N/A
$$

REGIONAL REPORTS...DAKOTAS
CITY           SKY/WX    TMP DP  RH WIND       PRES   REMARKS
WILLISTON      CLOUDY    81  66  60 VRB3      29.66R HI  83
DICKINSON      CLOUDY    73  66  79 SE16      29.66F
CROSBY         TSTM      64  64 100 N12       29.70R
TIOGA          FAIR      72  72 100 E12       29.74R
WATFORD CITY   CLEAR     75  66  74 S16G22    29.66R
BISMARCK       MOCLDY    75  64  69 SE20G28   29.68F
GRAND FORKS    CLOUDY    72  61  68 SE16      29.75F
FARGO          MOCLDY    73  63  71 SE24G33   29.74F
BUFFALO SD     CLOUDY    72  61  68 E13       29.65F
RAPID CITY     PTCLDY    84  73  70 VRB3      29.69S HI  90
$$

REGIONAL REPORTS...WYOMING/IDAHO/WASHINGTON
CITY           SKY/WX    TMP DP  RH WIND       PRES   REMARKS
GILLETTE       CLEAR     88  41  19 NW7       29.79R
SHERIDAN       CLEAR     88  36  16 NW26G35   29.79R
YELLOWSTONE LA CLEAR     63  21  20 W6        30.24S
SALMON         CLEAR     73  32  22 N14       29.95S
MULLAN PASS    CLOUDY    46  37  71 VRB6G20   30.18S
SAND POINT     CLOUDY    57  50  78 CALM      30.08F
SPOKANE        MOCLDY    68  41  38 W17       30.07F
$$

REGIONAL REPORTS...ALBERTA
CITY           SKY/WX    TMP DP  RH WIND       PRES   REMARKS
CALGARY        MOCLDY    61  32  34 W25G38    29.72S
LETHBRIDGE     MOCLDY    61  39  44 W29G39    29.81F
MEDICINE HAT   FAIR      66  39  37 SW21G35   29.77S
EDMONTON       MOCLDY    64  45  50 W26G38    29.57R
WATERTON GATE  N/A       55  36  49 SW32G55    N/A
CARDSTON       N/A       59  37  44 SW10G17    N/A
MILK RIVER     N/A       61  34  36 W25G33     N/A
$$

REGIONAL REPORTS...SASKATCHEWAN
CITY           SKY/WX    TMP DP  RH WIND       PRES   REMARKS
SWIFT CURRENT  CLEAR     61  54  78 W3        29.73F
REGINA         LGT RAIN  61  57  87 SW16G33   29.74F
VAL MARIE      N/A       63  46  54 NW7        N/A
ASSINIBOIA     N/A       59  54  84 NW12       N/A
CORONACH       N/A       61  54  78 NW9G17     N/A

$$



USA.gov is the U.S. government's official web portal to all federal, state and local government web resources and services.